Location: Unspecified
(0.0000°N, 0.0000°E)
Time: 18:35:12
(UTC+02:00)

SJ-6B - Visible Passes

Search period start: 28 May 2017 00:00
Search period end: 07 June 2017 00:00
Orbit: 512 x 584 km, 97.7° (Epoch: 27 May)

Date Brightness Start Highest point End Pass type
(mag) Time Alt. Az. Time Alt. Az. Time Alt. Az.
28 May 3.8 21:41:00 31° SSW 21:42:33 48° WSW 21:46:32 10° NNW visible
29 May 3.4 21:35:59 33° SSW 21:37:37 58° W 21:41:40 10° NNW visible
30 May 3.1 21:30:58 34° S 21:32:41 70° W 21:36:47 10° NNW visible
31 May 2.9 21:25:56 33° S 21:27:44 84° WSW 21:31:52 10° NNW visible
01 Jun 2.8 21:20:55 32° SSE 21:22:48 82° ENE 21:26:55 10° N visible
02 Jun 2.8 21:15:54 30° SSE 21:17:51 68° ENE 21:21:56 10° N visible
03 Jun 3.0 21:10:52 27° SE 21:12:55 56° ENE 21:16:56 10° N visible
04 Jun 3.2 21:05:51 24° SE 21:07:58 46° ENE 21:11:54 10° N visible
05 Jun 3.4 21:00:49 22° SE 21:03:01 38° ENE 21:06:50 10° N visible
06 Jun 3.7 20:55:47 19° SE 20:58:03 32° E 21:01:43 10° NNE visible
